This is the latest recevied weather packets stored in our database for station/object KD9IXX-13. If no packets are shown the sender has not sent any weather packets the latest 10 day(s).
| Time | Temp. | Humidity | Pressure | Rain* | Wind** | Luminosity | Snow |
|---|---|---|---|---|---|---|---|
| 1777920602 | 26.67° C | 44% | 1002.2 hPa | 0 mm | - | 746 W/m² | - |
| 1777920302 | 26.11° C | 43% | 1002.3 hPa | 0 mm | - | 814 W/m² | - |
| 1777920002 | 26.11° C | 41% | 1002.6 hPa | 0 mm | - | 167 W/m² | - |
| 1777919702 | 26.11° C | 42% | 1002.3 hPa | 0 mm | - | 464 W/m² | - |
| 1777919402 | 25.56° C | 43% | 1002.5 hPa | 0 mm | - | 466 W/m² | - |
| 1777919102 | 25.56° C | 44% | 1002.4 hPa | 0 mm | - | 772 W/m² | - |
| 1777918802 | 25.56° C | 42% | 1002.6 hPa | 0 mm | - | 752 W/m² | - |
| 1777918502 | 25.56° C | 43% | 1002.5 hPa | 0 mm | - | 784 W/m² | - |
| 1777918202 | 25.56° C | 43% | 1002.6 hPa | 0 mm | - | 729 W/m² | - |
| 1777917902 | 25° C | 46% | 1002.7 hPa | 0 mm | - | 696 W/m² | - |
| 1777917602 | 25° C | 44% | 1002.6 hPa | 0 mm | - | 701 W/m² | - |
| 1777917302 | 25° C | 45% | 1002.8 hPa | 0 mm | - | 749 W/m² | - |
| 1777917002 | 25° C | 47% | 1002.8 hPa | 0 mm | - | 743 W/m² | - |
| 1777916702 | 25° C | 46% | 1002.8 hPa | 0 mm | - | 777 W/m² | - |
| 1777916402 | 25° C | 48% | 1003 hPa | 0 mm | - | 737 W/m² | - |
| 1777916102 | 25° C | 50% | 1003 hPa | 0 mm | - | 751 W/m² | - |
| 1777915802 | 24.44° C | 52% | 1003 hPa | 0 mm | - | 150 W/m² | - |
| 1777915502 | 24.44° C | 53% | 1003.1 hPa | 0 mm | - | 693 W/m² | - |
| 1777915202 | 23.89° C | 54% | 1003.3 hPa | 0 mm | - | 670 W/m² | - |
| 1777914902 | 23.89° C | 52% | 1003.2 hPa | 0 mm | - | 661 W/m² | - |
| 1777914602 | 23.33° C | 53% | 1003.4 hPa | 0 mm | - | 657 W/m² | - |
| 1777914302 | 23.33° C | 50% | 1003.6 hPa | 0 mm | - | 678 W/m² | - |
| 1777914002 | 23.89° C | 51% | 1003.6 hPa | 0 mm | - | 680 W/m² | - |
| 1777913703 | 23.33° C | 54% | 1003.5 hPa | 0 mm | - | 657 W/m² | - |
| 1777913402 | 23.33° C | 53% | 1003.7 hPa | 0 mm | - | 660 W/m² | - |
* Rain latest hour (hover to see other rain measurements)
** Current wind speed in m/s (hover to see current wind gust speed)